Weather History for Goshen, IN

Change the Weather History Date:

Tuesday, November 16, 2010

  Actual Average Record
Temperature  
Mean Temperature 36 °F -  
Max Temperature 46 °F 48 °F 70 °F (1953)
Min Temperature 27 °F 31 °F 16 °F (1997)
Degree Days  
Heating Degree Days 28    
Moisture  
Dew Point 32 °F    
Average Humidity 79    
Maximum Humidity 92    
Minimum Humidity 63    
Precipitation  
Precipitation 0.01 in - - ()
Sea Level Pressure  
Sea Level Pressure 29.73 in    
Wind  
Wind Speed 5 mph (NE)    
Max Wind Speed 14 mph    
Max Gust Speed -    
Visibility 8 miles    
Events Rain    
Averages and records for this station are not official NWS values.
T = Trace of Precipitation, MM = Missing Value Source: NWS Daily Summary

Daily Weather History Graph

Daily Weather History Graph

Search for Another Location

Airport:

Trip Planner

Search our weather history database for the weather conditions in past years. The results will help you decide how hot, cold, wet, or windy it might be!

Date:

Astronomy

Nov. 16, 2010 Rise Set
Actual Time 7:33 AM EST 5:22 PM EST
Civil Twilight 7:03 AM EST 5:52 PM EST
Nautical Twilight 6:29 AM EST 6:25 PM EST
Astronomical Twilight 5:56 AM EST 6:58 PM EST
Moon 2:32 PM EST (11/16) 2:30 AM EST (11/16)
Length of Visible Light 10h 48m
Length of Day
9h 49m
Waxing Gibbous, 77% of the Moon is Illuminated
Nov 16
Waxing Gibbous
Nov 21
Full
Nov 28
Last Quarter
Dec 5
New
Dec 13
First Quarter

Hourly Weather History & Observations

Time (EST) Temp. Windchill Dew Point Humidity Pressure Visibility Wind Dir Wind Speed Gust Speed Precip Events Conditions
12:53 AM 30.0 °F - 27.0 °F 88% 29.92 in 8.0 mi Calm Calm - N/A   Clear
1:53 AM 28.9 °F 23.9 °F 26.1 °F 89% 29.91 in 10.0 mi SE 4.6 mph - N/A   Clear
2:53 AM 30.0 °F 24.1 °F 26.1 °F 85% 29.91 in 10.0 mi SE 5.8 mph - N/A   Clear
3:53 AM 30.0 °F 26.5 °F 26.1 °F 85% 29.90 in 10.0 mi East 3.5 mph - N/A   Clear
4:53 AM 28.0 °F - 26.1 °F 92% 29.88 in 7.0 mi Calm Calm - N/A   Clear
5:53 AM 28.0 °F - 25.0 °F 88% 29.88 in 7.0 mi Calm Calm - N/A   Clear
6:53 AM 27.0 °F - 25.0 °F 92% 29.86 in 6.0 mi Calm Calm - N/A   Clear
7:53 AM 27.0 °F - 24.1 °F 89% 29.85 in 4.0 mi Calm Calm - N/A   Clear
8:53 AM 33.1 °F 30.0 °F 30.0 °F 89% 29.83 in 5.0 mi East 3.5 mph - N/A   Clear
9:53 AM 37.0 °F 33.3 °F 32.0 °F 82% 29.79 in 5.0 mi ENE 4.6 mph - N/A   Haze
10:53 AM 43.0 °F 37.2 °F 34.0 °F 71% 29.77 in 8.0 mi ENE 10.4 mph - N/A   Clear
11:53 AM 45.0 °F 41.2 °F 34.0 °F 65% 29.75 in 10.0 mi ENE 6.9 mph - N/A   Clear
12:53 PM 46.0 °F 40.6 °F 34.0 °F 63% 29.68 in 9.0 mi ENE 11.5 mph - N/A   Clear
1:53 PM 46.0 °F 40.6 °F 35.1 °F 66% 29.65 in 8.0 mi ENE 11.5 mph - N/A   Clear
2:53 PM 46.0 °F 40.6 °F 35.1 °F 66% 29.60 in 9.0 mi NE 11.5 mph - N/A   Clear
3:53 PM 46.0 °F 40.6 °F 35.1 °F 66% 29.60 in 9.0 mi NNE 11.5 mph - N/A   Scattered Clouds
4:53 PM 45.0 °F 40.6 °F 35.1 °F 68% 29.60 in 10.0 mi NNE 8.1 mph - N/A   Mostly Cloudy
5:53 PM 44.1 °F 39.0 °F 36.0 °F 73% 29.58 in 10.0 mi North 9.2 mph - 0.00 in   Overcast
6:53 PM 45.0 °F 38.5 °F 34.0 °F 65% 29.56 in 10.0 mi North 13.8 mph - N/A   Overcast
7:53 PM 43.0 °F 37.7 °F 36.0 °F 76% 29.56 in 10.0 mi North 9.2 mph - 0.00 in Rain Light Rain
8:53 PM 43.0 °F 37.7 °F 36.0 °F 76% 29.56 in 9.0 mi NNW 9.2 mph - 0.00 in Rain Light Rain
9:53 PM 42.1 °F 37.7 °F 37.0 °F 82% 29.57 in 9.0 mi NW 6.9 mph - 0.01 in Rain Light Rain
10:53 PM 41.0 °F 36.4 °F 37.0 °F 86% 29.60 in 9.0 mi WNW 6.9 mph - 0.00 in Rain Light Rain
11:53 PM 39.9 °F 36.7 °F 37.0 °F 89% 29.62 in 9.0 mi WNW 4.6 mph - 0.00 in   Overcast